Regional Weather Roundup
Issued by NWS

Home | Current Version | Previous Version | Graphics & Text | Print | Product List | Glossary Off
Versions: 1 2 3 4 5 6 7 8 9 10 11 12 13 14 15 16 17 18 19 20 21 22 23 24 25 26 27 28 29 30 31 32 33 34 35 36 37 38 39 40 41 42 43 44 45 46 47 48 49 50

000
ASUS43 KMPX 280810
RWRMN
WEATHER ROUNDUP FOR MINNESOTA
NATIONAL WEATHER SERVICE TWIN CITIES/CHANHASSEN MN
200 AM CST FRI NOV 28 2014


NOTE: "FAIR" INDICATES FEW OR NO CLOUDS BELOW 12,000 FEET WITH NO
SIGNIFICANT WEATHER AND/OR OBSTRUCTIONS TO VISIBILITY. N/A MEANS
CURRENT SKY AND/OR WEATHER CONDITIONS ARE NOT AVAILABLE.

MNZ060>063-068>070-280900-
   Twin Cities Metro

CITY           SKY/WX    TMP DP  RH WIND       PRES   REMARKS
TWIN CITIES    LGT SNOW   7   4  87 E13       30.20F FOG     WCI  -9
ST PAUL        LGT SNOW   8   5  87 SE9       30.24F VSB 1   WCI  -5
CRYSTAL        LGT SNOW   9   4  80 E8        30.17F WCI  -3
BLAINE         LGT SNOW   9   7  92 SE8       30.18F WCI  -4
LAKEVILLE      LGT SNOW   7   3  85 E9        30.17F WCI  -7
EDEN PRAIRIE   LGT SNOW   8   4  83 E12       30.16F FOG     WCI  -7
SOUTH ST PAUL  LGT SNOW   9   5  83 SE6       30.22F WCI  -1
LAKE ELMO      LGT SNOW  10   7  85 SE7       30.22F VSB 1   WCI   0
$$
MNZ001>005-007-008-013>017-022>024-027-028-280900-
   Northwest Minnesota

CITY           SKY/WX    TMP DP  RH WIND       PRES   REMARKS
BEMIDJI        CLOUDY     7   1  79 SE7       30.06F WCI  -5
HALLOCK        FLURRIES   9   3  78 SE5       30.09R WCI   0
ROSEAU         CLOUDY     9   1  72 E5        30.09F WCI   0
WARROAD        CLOUDY     7   1  78 E5        30.10F WCI  -2
THIEF RVR FALL CLOUDY    10   5  79 E9        30.05F WCI  -2
CROOKSTON      FLURRIES  10   7  85 SE8       30.07F WCI  -1
FOSSTON        CLOUDY     7   3  85 E6        30.04F WCI  -3
DETROIT LAKES  LGT SNOW  10   5  79 SE12      30.02F WCI  -4
MOORHEAD       MIX PCPN  12  10  92 SE7       30.04F WCI   2
PARK RAPIDS    FLURRIES   6   2  83 SE9       30.04F WCI  -8
MAHNOMEN       CLOUDY     9   4  78 SE9       30.02F WCI  -4
$$
MNZ006-009>011-018-025>026-280900-
   North Central Minnesota

CITY           SKY/WX    TMP DP  RH WIND       PRES   REMARKS
BAUDETTE       CLOUDY     5  -2  72 SE6       30.10F WCI  -6
FLAG ISLAND    MOCLDY     3  -2  78 E5        30.11F WCI  -6
INTL FALLS     CLOUDY     2  -4  76 SE6       30.13F WCI  -9
WASKISH        CLOUDY     9   1  72 CALM      30.10F
BIG FORK       FLURRIES   9   0  66 SE3       30.11F
LONGVILLE      FLURRIES   7   1  78 SE6       30.08F WCI  -3
GRAND RAPIDS   CLOUDY     7   0  72 SE5       30.10F WCI  -2
CRANE LAKE     CLOUDY     1  -2  85 CALM      30.18S
ORR            CLOUDY     5  -4  66 CALM      30.12R
COOK           CLOUDY     7  -2  66 CALM      30.14F
WALKER         CLOUDY     6   1  78 SE6       30.07F WCI  -4
$$
MNZ012-019>021-037-280900-
   Northeast Minnesota

CITY           SKY/WX    TMP DP  RH WIND       PRES   REMARKS
DULUTH         CLOUDY     7  -4  60 S7        30.14F WCI  -5
ELY            CLOUDY     3  -4  72 S3        30.15S
HIBBING        FLURRIES   7  -3  64 SE3       30.14F
EVELETH        PTCLDY     7  -2  66 S3        30.15F
DULUTH HARBOR  CLOUDY     9   0  66 CALM      30.24F
TWO HARBORS    CLOUDY    10   1  67 SW7       30.16F WCI   0
SILVER BAY     MOCLDY    10   0  61 CALM      30.17F
GRAND MARAIS     N/A     11   0  61 VRB7      30.23F WCI   0
G MARAIS ARPRT CLOUDY     1 -11  55 W3        30.12F
$$
MNZ029>031-032-039>041-046>048-054>057-064-280900-
   West Central Minnesota

CITY           SKY/WX    TMP DP  RH WIND       PRES   REMARKS
FERGUS FALLS   CLOUDY     9   3  78 SE15      30.06F WCI  -8
WHEATON        CLOUDY     7   1  78 SE22      30.04F WCI -14
MORRIS         MOCLDY     9   1  72 SE22      30.02F WCI -11
ALEXANDRIA     CLOUDY     7   2  80 SE13      30.04F WCI  -9
ELBOW LAKE     CLOUDY     8   3  79 SE16G22   30.02F HAZE    WCI  -9
WADENA         LGT SNOW   5   1  85 SE10      30.04F WCI -10
GLENWOOD       CLOUDY     7   3  85 SE13G21   30.06S WCI  -9
APPLETON       PTCLDY     9   1  72 SE16      30.04F WCI  -9
BENSON         CLOUDY     9   1  72 S14       30.05F WCI  -8
ORTONVILLE     PTCLDY     7   1  78 SE14      30.01F WCI -10
MADISON        PTCLDY    12   7  79 SE15      30.02F WCI  -4
WILLMAR        MOCLDY     9   3  78 SE15      30.08R WCI  -8
$$
MNZ033>034-036-042>043-049>051-058-059-280900-
   Central Minnesota

CITY           SKY/WX    TMP DP  RH WIND       PRES   REMARKS
ST CLOUD       LGT SNOW   8   2  76 E8        30.12F WCI  -4
SAUK CENTRE    CLOUDY     6   2  84 E13       30.06F WCI -10
PAYNESVILLE    CLOUDY     5   2  87 E14       30.08F WCI -13
AITKIN         LGT SNOW  10   3  72 SE6       30.10F VSB 3/4 WCI   1
PINE RIVER     LGT SNOW   7   1  78 SE9       30.11F WCI  -7
BRAINERD       CLOUDY     6   2  83 SE7       30.10F WCI  -6
STAPLES        LGT SNOW   5   1  85 SE6       30.07F WCI  -6
LONG PRAIRIE   LGT SNOW   5   1  85 E9        30.05F WCI  -9
LITTLE FALLS   LGT SNOW   7   3  85 SE10      30.10F WCI  -8
LITCHFIELD     CLOUDY     9   5  85 E16       30.09F WCI  -9
BUFFALO        LGT SNOW   8   4  84 E12       30.14F WCI  -7
MAPLE LAKE     FLURRIES   9   6  89 E9        30.13F WCI  -5
$$
MNZ037-044-045-052-053-280900-
   East Central Minnesota

CITY           SKY/WX    TMP DP  RH WIND       PRES   REMARKS
PRINCETON      LGT SNOW   9   5  85 E7        30.15F WCI  -3
MORA             N/A    N/A N/A N/A MISG        N/A
CAMBRIDGE      LGT SNOW   9   1  72 SE3       30.17F
RUSH CITY      LGT SNOW   8   4  85 SE3       30.20F
MOOSE LAKE     LGT SNOW   9   3  78 S6        30.15F WCI  -1
HINCKLEY       LGT SNOW   9   5  85 CALM      30.18F
CLOQUET        LGT SNOW   7   0  72 CALM      30.15F
MCGREGOR       CLOUDY     9   5  85 S7        30.14F WCI  -3
$$
MNZ071>073-080-081-089-090-097-098-280900-
   Southwest Minnesota

CITY           SKY/WX    TMP DP  RH WIND       PRES   REMARKS
MONTEVIDEO     CLOUDY     9   3  78 S15       30.06S WCI  -8
GRANITE FALLS  CLOUDY     8   2  76 E14G20    30.07S WCI  -8
CANBY          PTCLDY    12   7  80 SE10      30.00F WCI  -1
MARSHALL       CLOUDY    12   3  67 SE14      30.00F WCI  -3
REDWOOD FALLS  CLOUDY    10   3  73 SE20      30.06F WCI  -9
OLIVIA         MOCLDY    10   5  79 SE15G23   30.06F WCI  -6
PIPESTONE      PTCLDY    16  12  86 S10       29.93F WCI   3
WINDOM         CLOUDY    10   7  85 SE12G20   30.01S WCI  -4
WORTHINGTON    CLOUDY    12   9  85 S15G22    29.97F WCI  -4
JACKSON        CLOUDY    12   7  79 SE12      30.02F WCI  -2
TRACY          CLOUDY    14   8  78 SE9       30.00F WCI   2
SLAYTON        MOCLDY    14  10  83 SE17      29.97F WCI  -3
$$
MNZ065>067-074>077-082>085-091>093-280900-
   South Central Minnesota

CITY           SKY/WX    TMP DP  RH WIND       PRES   REMARKS
MANKATO        CLOUDY    10   3  72 SE20      30.10F WCI  -8
NEW ULM        CLOUDY    10   3  72 SE15      30.07F WCI  -6
ST JAMES       PTCLDY    12   5  73 SE16      30.08F WCI  -4
FAIRMONT       CLOUDY    12   3  67 SE18      30.05F WCI  -5
GLENCOE        LGT SNOW   9   6  89 E16       30.11F WCI  -8
FARIBAULT      LGT SNOW  10   7  85 SE12      30.15F WCI  -4
OWATONNA       CLOUDY    10   5  79 SE16      30.13F WCI  -7
WASECA         CLOUDY    12   5  73 SE15G22   30.14F WCI  -4
ALBERT LEA     CLOUDY    10   7  85 SE14G20   30.14F WCI  -5
$$
MNZ078>079-086>088-094>096-280900-
   Southeast Minnesota

CITY           SKY/WX    TMP DP  RH WIND       PRES   REMARKS
ROCHESTER      LGT SNOW   9   5  84 SE16      30.18F FOG     WCI  -8
RED WING       LGT SNOW  10   7  85 SE8       30.24F WCI  -1
STANTON        LGT SNOW  10   6  82 SE6       30.17F WCI   1
DODGE CENTER   LGT SNOW  10   7  85 SE15      30.15F WCI  -6
WINONA         LGT SNOW  12   9  85 S3        30.30R
AUSTIN         CLOUDY    10   5  79 SE10      30.16F WCI  -3
PRESTON        LGT SNOW   9   5  85 SE8       30.22F WCI  -3
$$
ABBREVIATIONS USED IN REMARKS
   TC - TEMPERATURES IN CELSIUS
  WCI - WIND CHILL INDEX
   HX - HEAT INDEX
  VSB - VISIBILITY
$$



USA.gov is the U.S. government's official web portal to all federal, state and local government web resources and services.